This demonstration page uses our WeatherBlox Daily Observations layout. Learn more.

Left ArrowRight Arrow

Hourly Observations for June 10, 2019

Temp ( °F °C ) Dew Point ( °F °C ) Humidity (%) Winds ( mph kmh ) Pressure ( in mb ) Visibility ( mi km ) Precip ( " mm )
12:53 am 00:53 Clear 47 8.3 38 3.3 71 71 S 9 15 30.25 1024 10 16 0.00 0.00
1:53 am 01:53 Clear 42 5.6 37 2.8 82 82 W 6 9 30.24 1024 10 16 0.00 0.00
2:53 am 02:53 Clear 41 5 36 2.2 82 82 VRB 6 9 30.24 1024 10 16 0.00 0.00
3:53 am 03:53 Clear 40 4.4 36 2.2 86 86 SSW 9 15 30.24 1024 10 16 0.00 0.00
4:53 am 04:53 Clear 42 5.6 35 1.7 76 76 S 3 6 30.24 1024 10 16 0.00 0.00
5:53 am 05:53 Sunny 41 5 35 1.7 79 79 Calm 30.24 1024 10 16 0.00 0.00
6:53 am 06:53 Sunny 42 5.6 36 2.2 79 79 W 6 9 30.24 1024 10 16 0.00 0.00
7:53 am 07:53 Sunny 50 10 38 3.3 63 63 NNW 3 6 30.22 1024 10 16 0.00 0.00
8:53 am 08:53 Sunny 60 15.6 36 2.2 41 41 WSW 17 28 30.21 1023 10 16 0.00 0.00
9:53 am 09:53 Sunny 64 17.8 37 2.8 37 37 SW 13 20 30.19 1023 10 16 0.00 0.00
10:53 am 10:53 Sunny 69 20.6 36 2.2 30 30 WSW 9 15 30.16 1021 10 16 0.00 0.00
11:53 am 11:53 Mostly Sunny 71 21.7 33 0.6 25 25 W 10 17 30.14 1021 10 16 0.00 0.00
12:53 pm 12:53 Partly Cloudy 72 22.2 33 0.6 24 24 W 12 19 30.12 1020 10 16 0.00 0.00
1:53 pm 13:53 Cloudy 72 22.2 32 0 23 23 W 10 17 30.12 1020 10 16 0.00 0.00
2:53 pm 14:53 Mostly Sunny 74 23.3 34 1.1 23 23 WSW 18 30 30.10 1019 10 16 0.00 0.00
3:53 pm 15:53 Cloudy 72 22.2 34 1.1 25 25 WSW 9 15 30.09 1019 10 16 0.00 0.00
4:53 pm 16:53 Mostly Cloudy 73 22.8 32 0 22 22 W 6 9 30.07 1018 10 16 0.00 0.00
5:53 pm 17:53 Mostly Cloudy 72 22.2 33 0.6 24 24 W 8 13 30.06 1018 10 16 0.00 0.00
6:53 pm 18:53 Cloudy 72 22.2 34 1.1 25 25 NNW 6 9 30.05 1018 10 16 0.00 0.00
7:53 pm 19:53 Partly Cloudy 71 21.7 34 1.1 26 26 N 7 11 30.04 1017 10 16 0.00 0.00
8:53 pm 20:53 Mostly Cloudy 67 19.4 36 2.2 32 32 NNW 6 9 30.04 1017 10 16 0.00 0.00
9:53 pm 21:53 Cloudy 66 18.9 38 3.3 36 36 Calm 30.06 1018 10 16 0.00 0.03
10:53 pm 22:53 Cloudy 59 15 44 6.7 58 58 SW 5 7 30.06 1018 10 16 0.00 0.00
11:53 pm 23:53 Cloudy 59 15 44 6.7 58 58 W 5 7 30.07 1018 10 16 0.00 0.00

Powered by AerisWeather